ATLAS 5 CENTAUR DEB, 44003

Orbit data source: Space-Track

ATLAS 5 CENTAUR DEB, 44003 is space debris in HEO originally from a launch on Wed, 17 Sep 2014 UTC launched from the Air Force Eastern Test Range (AFETR). Debris objects in space refer to the collection of defunct objects orbiting the Earth. Examples of debris include non-operational satellites, rocket bodies, and fragments generated from explosions, collisions, or faulty payload assembly.

Loading next visibility...
Identifier
44003, 2014-055BJ
Orbit
HEO
Country
Flag of USUS
Related business
Flag of USUnited Launch Alliance/Lockheed Martin (US)
Manufacturer
Unknown
Mission
Spacecraft
Bus & Motor
Unknown
Mass
Unknown
Launch date (UTC)
2014-09-17 (12 years ago)
Launch vehicle
Unknown
Launch site
Air Force Eastern Test Range (AFETR)
Object type
Payload
Rocket body
Debris
Shape & HBR
Unknown shape, 1.1 m
Radar Cross Section
Small (<0.1 m²)

Expand to show TLE details & history
Last TLE update: 3 days ago

TLE from 3 days ago
0 ATLAS 5 CENTAUR DEB
1 44003U 14055BJ  26117.27044131 -.00000014  00000-0  00000-0 0  9991
2 44003  19.3944 182.0726 4633375 100.5387 313.0881  1.81340398 50538
Epoch: 2026-04-27T06:29Z
TLE epoch observation values (Epoch: 2026-04-27T06:29:26.129Z)
Latitude
0.00001°
Longitude
-130.47347°
Altitude
17,980.704 km
Speed
4.324 km/s
True Right ascension
12h 08m 35s
True Declination
0° 00' 00"
Sunlit
Object was in daylight at epoch
Visualization orbit readout
Latitude
Unknown
Longitude
Unknown
Altitude
Unknown
Speed
Unknown
Apparent Right ascension
Unknown
Apparent Declination
Unknown
Sunlit
N/A
Visualization observer readout
Local Sidereal Time
22:21:36
Azimuth
Unknown
Elevation
Unknown
Doppler factor
Unknown
Orbital elements
Apogee altitude
35,191.733 km
Perigee altitude
8,867.143 km
Semi-major axis
28,407.575 km
Eccentricity
0.46334
Inclination
19.3944°
RAAN
182.0726°
Arg. of periapsis
100.5387°
True anomaly
259.43128°
Mean anomaly
313.0881°
Eccentric anomaly
287.81357°
Mean motion
0.45331 °/min
Orbital period
794.16 mins
BSTAR
0
Loading maneuver chart data...
Computing Atmospheric mass density...

Documentation

Showing up to 5 results
|